User: anonymous   Login
Location: Arbon
(43.0005°N, 0.7472°E)
Time: 18:26:43
(UTC+00:00)
Language:

Cosmos 1726 - Orbit

View from above orbital plane
View from above orbital plane
View from above satellite
View from above satellite

Ground track
Ground track

The orbit data is extracted from the following two-line orbital elements,

1 16495U 86006A   21339.95753585  .00002157  00000-0  81316-4 0  9998
2 16495  82.4735 230.4962 0010756 216.6226 143.4278 15.26480005964858
Epoch (UTC): 05 December 2021 22:58:51
Eccentricity: 0.0010756
inclination: 82.4735°
perigee height: 479 km
apogee height: 494 km
right ascension of ascending node: 230.4962°
argument of perigee: 216.6226°
revolutions per day: 15.26480005
mean anomaly at epoch: 143.4278°
orbit number at epoch: 96485

The dashed part of the orbit path shows where the satellite is in the earth's shadow,  

DLR